Skip Page Navigation
NASA JPL Caltech
NASA Logo - Jet Propulsion Laboratory + View the NASA Portal
+ Center for Near-Earth Object Studies
JPL Home Earth Solar System Stars & Galaxies Technology
JPL Solar System Dynamics
BODIES ORBITS EPHEMERIDES TOOLS PHYSICAL DATA DISCOVERY FAQ SITE MAP
JPL Small-Body Database Browser
Search: [ help ]  
214525 (2006 KH4)
Classification: Main-belt Asteroid          SPK-ID: 2214525
Ephemeris | Orbit Diagram | Orbital Elements | Mission Design | Physical Parameters | Discovery Circumstances ]

[ show orbit diagram ]
Orbital Elements at Epoch 2459000.5 (2020-May-31.0) TDB
Reference: JPL 10 (heliocentric ecliptic J2000)
 Element Value Uncertainty (1-sigma)   Units 
e .1117510377849096 4.7114e-08  
a 2.178890025723599 1.8364e-08 au
q 1.935396804129798 1.0087e-07 au
i 5.579730294681021 5.8945e-06 deg
node 68.97851165266961 8.2273e-05 deg
peri 159.076817879202 9.2069e-05 deg
M 138.2385800591962 4.5936e-05 deg
tp 2458549.394464270260
(2019-Mar-06.89446427)
0.00014691 TDB
period 1174.766065979299
3.22
1.4851e-05
4.066e-08
d
yr
n .3064439895102858 3.8741e-09 deg/d
Q 2.422383247317399 2.0416e-08 au
  Orbit Determination Parameters
   # obs. used (total)      119  
   data-arc span      4811 days (13.17 yr)  
   first obs. used      2004-11-20  
   last obs. used      2018-01-22  
   planetary ephem.      DE431  
   SB-pert. ephem.      SB431-N16  
   condition code      0  
   norm. resid. RMS      .56805  
   source      ORB  
   producer      Otto Matic  
   solution date      2018-Feb-06 08:16:40  

Additional Information
 Earth MOID = .926121 au 
 Jupiter MOID = 2.55934 au 
 T_jup = 3.668 
[ show covariance matrix ]

Ephemeris | Orbit Diagram | Orbital Elements | Mission Design | Physical Parameters | Discovery Circumstances ]

Physical Parameter Table
Parameter Symbol Value Units Sigma Reference Notes
absolute magnitude H 17.7   n/a MPO433403  

214525 (2006 KH4)          Discovered 2006-May-19 by Mt. Lemmon Survey at Mount Lemmon
Reference: 20090509/Numbers.arcLast Updated: 2009-05-11
Ephemeris | Orbit Diagram | Orbital Elements | Mission Design | Physical Parameters | Discovery Circumstances ]
ABOUT SSD CREDITS/AWARDS PRIVACY/COPYRIGHT GLOSSARY LINKS
FirstGov 2020-Aug-09 04:13 UT
(server date/time)  
NASA Home Page
Site Manager:   Ryan S. Park
Webmaster  Alan B. Chamberlin